owner,sensor,date,latitude,longitude,vertical_datum,mass_concentration_of_oxygen_in_sea_water,qcFlag 
DISL,ioos:station:DISL:BSCA:1,2011-04-01T00:00:00Z,30.3288,-87.8293,1.603,3.11,1111122 
DISL,ioos:station:DISL:BSCA:1,2011-04-01T00:30:00Z,30.3288,-87.8293,1.608,3.74,1111122 
DISL,ioos:station:DISL:BSCA:1,2011-04-01T01:00:00Z,30.3288,-87.8293,1.646,6.2,1111122 
DISL,ioos:station:DISL:BSCA:1,2011-04-01T01:30:00Z,30.3288,-87.8293,1.665,4.87,1111122 
DISL,ioos:station:DISL:BSCA:1,2011-04-01T02:00:00Z,30.3288,-87.8293,1.682,4.16,1111122 
DISL,ioos:station:DISL:BSCA:1,2011-04-01T02:30:00Z,30.3288,-87.8293,1.689,5.89,1111122 
DISL,ioos:station:DISL:BSCA:1,2011-04-01T03:00:00Z,30.3288,-87.8293,1.723,4.76,1111122 
DISL,ioos:station:DISL:BSCA:1,2011-04-01T03:30:00Z,30.3288,-87.8293,1.727,5.57,1111122 
DISL,ioos:station:DISL:BSCA:1,2011-04-01T04:00:00Z,30.3288,-87.8293,1.753,6.28,1111122 
DISL,ioos:station:DISL:BSCA:1,2011-04-01T04:30:00Z,30.3288,-87.8293,1.76,6.69,1111122 
DISL,ioos:station:DISL:BSCA:1,2011-04-01T05:00:00Z,30.3288,-87.8293,1.773,7.51,1111122 
DISL,ioos:station:DISL:BSCA:1,2011-04-01T05:30:00Z,30.3288,-87.8293,1.787,6.02,1111122 
DISL,ioos:station:DISL:BSCA:1,2011-04-01T06:00:00Z,30.3288,-87.8293,1.792,6.14,1111122 
DISL,ioos:station:DISL:BSCA:1,2011-04-01T06:30:00Z,30.3288,-87.8293,1.77,5.47,1111122 
DISL,ioos:station:DISL:BSCA:1,2011-04-01T07:00:00Z,30.3288,-87.8293,1.717,5.05,1111122 
DISL,ioos:station:DISL:BSCA:1,2011-04-01T07:30:00Z,30.3288,-87.8293,1.708,3.56,1111122 
DISL,ioos:station:DISL:BSCA:1,2011-04-01T08:00:00Z,30.3288,-87.8293,1.663,7.47,1111122 
DISL,ioos:station:DISL:BSCA:1,2011-04-01T08:30:00Z,30.3288,-87.8293,1.636,4.63,1111122 
DISL,ioos:station:DISL:BSCA:1,2011-04-01T09:00:00Z,30.3288,-87.8293,1.623,6.95,1111122 
DISL,ioos:station:DISL:BSCA:1,2011-04-01T09:30:00Z,30.3288,-87.8293,1.605,6.18,1111122 
DISL,ioos:station:DISL:BSCA:1,2011-04-01T10:00:00Z,30.3288,-87.8293,1.612,5.44,1111122 
DISL,ioos:station:DISL:BSCA:1,2011-04-01T10:30:00Z,30.3288,-87.8293,1.611,4.79,1111122 
DISL,ioos:station:DISL:BSCA:1,2011-04-01T11:00:00Z,30.3288,-87.8293,1.612,6.31,1111122 
DISL,ioos:station:DISL:BSCA:1,2011-04-01T11:30:00Z,30.3288,-87.8293,1.624,6.31,1111122 
DISL,ioos:station:DISL:BSCA:1,2011-04-01T12:00:00Z,30.3288,-87.8293,1.642,7.3,1111122 
DISL,ioos:station:DISL:BSCA:1,2011-04-01T12:30:00Z,30.3288,-87.8293,1.66,7.37,1111122 
DISL,ioos:station:DISL:BSCA:1,2011-04-01T13:00:00Z,30.3288,-87.8293,1.696,7.09,1111122 
DISL,ioos:station:DISL:BSCA:1,2011-04-01T13:30:00Z,30.3288,-87.8293,1.72,7.45,1111122 
DISL,ioos:station:DISL:BSCA:1,2011-04-01T14:00:00Z,30.3288,-87.8293,1.75,7.65,1111122 
DISL,ioos:station:DISL:BSCA:1,2011-04-01T14:30:00Z,30.3288,-87.8293,1.761,7.9,1111122 
DISL,ioos:station:DISL:BSCA:1,2011-04-01T15:00:00Z,30.3288,-87.8293,1.757,7.99,1111122 
DISL,ioos:station:DISL:BSCA:1,2011-04-01T15:30:00Z,30.3288,-87.8293,1.746,8.3,1111122 
DISL,ioos:station:DISL:BSCA:1,2011-04-01T16:00:00Z,30.3288,-87.8293,1.727,6.54,1111122 
DISL,ioos:station:DISL:BSCA:1,2011-04-01T16:30:00Z,30.3288,-87.8293,1.706,7.5,1111122 
DISL,ioos:station:DISL:BSCA:1,2011-04-01T17:00:00Z,30.3288,-87.8293,1.688,7.62,1111122 
DISL,ioos:station:DISL:BSCA:1,2011-04-01T17:30:00Z,30.3288,-87.8293,1.69,8.04,1111122 
DISL,ioos:station:DISL:BSCA:1,2011-04-01T18:00:00Z,30.3288,-87.8293,1.679,7.87,1111122 
DISL,ioos:station:DISL:BSCA:1,2011-04-01T18:30:00Z,30.3288,-87.8293,1.675,8.21,1111122 
DISL,ioos:station:DISL:BSCA:1,2011-04-01T19:00:00Z,30.3288,-87.8293,1.671,8.23,1111122 
DISL,ioos:station:DISL:BSCA:1,2011-04-01T19:30:00Z,30.3288,-87.8293,1.654,8.71,1111122 
DISL,ioos:station:DISL:BSCA:1,2011-04-01T20:00:00Z,30.3288,-87.8293,1.626,9.6,1111122 
DISL,ioos:station:DISL:BSCA:1,2011-04-01T20:30:00Z,30.3288,-87.8293,1.604,9.8,1111122 
DISL,ioos:station:DISL:BSCA:1,2011-04-01T21:00:00Z,30.3288,-87.8293,1.578,9.6,1111122 
DISL,ioos:station:DISL:BSCA:1,2011-04-01T21:30:00Z,30.3288,-87.8293,1.577,9.55,1111122 
DISL,ioos:station:DISL:BSCA:1,2011-04-01T22:00:00Z,30.3288,-87.8293,1.561,9.23,1111122 
DISL,ioos:station:DISL:BSCA:1,2011-04-01T22:30:00Z,30.3288,-87.8293,1.572,9.39,1111122 
DISL,ioos:station:DISL:BSCA:1,2011-04-01T23:00:00Z,30.3288,-87.8293,1.564,9.41,1111122 
DISL,ioos:station:DISL:BSCA:1,2011-04-01T23:30:00Z,30.3288,-87.8293,1.566,9.31,1111122 
DISL,ioos:station:DISL:BSCA:1,2011-04-02T00:00:00Z,30.3288,-87.8293,1.578,9.09,1111122 
DISL,ioos:station:DISL:BSCA:1,2011-04-02T00:30:00Z,30.3288,-87.8293,1.574,9.13,1111122 
DISL,ioos:station:DISL:BSCA:1,2011-04-02T01:00:00Z,30.3288,-87.8293,1.59,8.92,1111122 
DISL,ioos:station:DISL:BSCA:1,2011-04-02T01:30:00Z,30.3288,-87.8293,1.594,8.65,1111122 
DISL,ioos:station:DISL:BSCA:1,2011-04-02T02:00:00Z,30.3288,-87.8293,1.617,8.54,1111122 
DISL,ioos:station:DISL:BSCA:1,2011-04-02T02:30:00Z,30.3288,-87.8293,1.627,8.61,1111122 
DISL,ioos:station:DISL:BSCA:1,2011-04-02T03:00:00Z,30.3288,-87.8293,1.647,8.16,1111122 
DISL,ioos:station:DISL:BSCA:1,2011-04-02T03:30:00Z,30.3288,-87.8293,1.654,8.13,1111122 
DISL,ioos:station:DISL:BSCA:1,2011-04-02T04:00:00Z,30.3288,-87.8293,1.669,8.22,1111122 
DISL,ioos:station:DISL:BSCA:1,2011-04-02T04:30:00Z,30.3288,-87.8293,1.677,8.14,1111122 
DISL,ioos:station:DISL:BSCA:1,2011-04-02T05:00:00Z,30.3288,-87.8293,1.69,7.8,1111122 
DISL,ioos:station:DISL:BSCA:1,2011-04-02T05:30:00Z,30.3288,-87.8293,1.691,8.05,1111122 
DISL,ioos:station:DISL:BSCA:1,2011-04-02T06:00:00Z,30.3288,-87.8293,1.708,8.23,1111122 
DISL,ioos:station:DISL:BSCA:1,2011-04-02T06:30:00Z,30.3288,-87.8293,1.7,8.12,1111122 
DISL,ioos:station:DISL:BSCA:1,2011-04-02T07:00:00Z,30.3288,-87.8293,1.697,7.97,1111122 
DISL,ioos:station:DISL:BSCA:1,2011-04-02T07:30:00Z,30.3288,-87.8293,1.687,8.14,1111122 
DISL,ioos:station:DISL:BSCA:1,2011-04-02T08:00:00Z,30.3288,-87.8293,1.669,7.99,1111122 
DISL,ioos:station:DISL:BSCA:1,2011-04-02T08:30:00Z,30.3288,-87.8293,1.654,7.83,1111122 
DISL,ioos:station:DISL:BSCA:1,2011-04-02T09:00:00Z,30.3288,-87.8293,1.64,7.59,1111122 
DISL,ioos:station:DISL:BSCA:1,2011-04-02T09:30:00Z,30.3288,-87.8293,1.614,7.67,1111122 
DISL,ioos:station:DISL:BSCA:1,2011-04-02T10:00:00Z,30.3288,-87.8293,1.614,7.07,1111122 
DISL,ioos:station:DISL:BSCA:1,2011-04-02T10:30:00Z,30.3288,-87.8293,1.6,6.82,1111122 
DISL,ioos:station:DISL:BSCA:1,2011-04-02T11:00:00Z,30.3288,-87.8293,1.614,6.26,1111122 
DISL,ioos:station:DISL:BSCA:1,2011-04-02T11:30:00Z,30.3288,-87.8293,1.617,5.97,1111122 
DISL,ioos:station:DISL:BSCA:1,2011-04-02T12:00:00Z,30.3288,-87.8293,1.627,6.35,1111122 
DISL,ioos:station:DISL:BSCA:1,2011-04-02T12:30:00Z,30.3288,-87.8293,1.646,5.85,1111122 
DISL,ioos:station:DISL:BSCA:1,2011-04-02T13:00:00Z,30.3288,-87.8293,1.638,5.48,1111122 
DISL,ioos:station:DISL:BSCA:1,2011-04-02T13:30:00Z,30.3288,-87.8293,1.653,5.94,1111122 
DISL,ioos:station:DISL:BSCA:1,2011-04-02T14:00:00Z,30.3288,-87.8293,1.656,6.36,1111122 
DISL,ioos:station:DISL:BSCA:1,2011-04-02T14:30:00Z,30.3288,-87.8293,1.67,6.25,1111122 
DISL,ioos:station:DISL:BSCA:1,2011-04-02T15:00:00Z,30.3288,-87.8293,1.675,7.02,1111122 
DISL,ioos:station:DISL:BSCA:1,2011-04-02T15:30:00Z,30.3288,-87.8293,1.678,6.05,1111122 
DISL,ioos:station:DISL:BSCA:1,2011-04-02T16:00:00Z,30.3288,-87.8293,1.678,6.81,1111122 
DISL,ioos:station:DISL:BSCA:1,2011-04-02T16:30:00Z,30.3288,-87.8293,1.668,6.79,1111122 
DISL,ioos:station:DISL:BSCA:1,2011-04-02T17:00:00Z,30.3288,-87.8293,1.665,4.91,1111122 
DISL,ioos:station:DISL:BSCA:1,2011-04-02T17:30:00Z,30.3288,-87.8293,1.66,6.69,1111122 
DISL,ioos:station:DISL:BSCA:1,2011-04-02T18:00:00Z,30.3288,-87.8293,1.656,5.26,1111122 
DISL,ioos:station:DISL:BSCA:1,2011-04-02T18:30:00Z,30.3288,-87.8293,1.653,5.68,1111122 
DISL,ioos:station:DISL:BSCA:1,2011-04-02T19:00:00Z,30.3288,-87.8293,1.638,6.87,1111122 
DISL,ioos:station:DISL:BSCA:1,2011-04-02T19:30:00Z,30.3288,-87.8293,1.61,8.4,1111122 
DISL,ioos:station:DISL:BSCA:1,2011-04-02T20:00:00Z,30.3288,-87.8293,1.595,8.32,1111122 
DISL,ioos:station:DISL:BSCA:1,2011-04-02T20:30:00Z,30.3288,-87.8293,1.567,8.16,1111122 
DISL,ioos:station:DISL:BSCA:1,2011-04-02T21:00:00Z,30.3288,-87.8293,1.551,8.0,1111122 
DISL,ioos:station:DISL:BSCA:1,2011-04-02T21:30:00Z,30.3288,-87.8293,1.522,8.24,1111122 
DISL,ioos:station:DISL:BSCA:1,2011-04-02T22:00:00Z,30.3288,-87.8293,1.517,8.46,1111122 
DISL,ioos:station:DISL:BSCA:1,2011-04-02T22:30:00Z,30.3288,-87.8293,1.504,8.33,1111122 
DISL,ioos:station:DISL:BSCA:1,2011-04-02T23:00:00Z,30.3288,-87.8293,1.503,7.81,1111122 
DISL,ioos:station:DISL:BSCA:1,2011-04-02T23:30:00Z,30.3288,-87.8293,1.501,7.57,1111122 
DISL,ioos:station:DISL:BSCA:1,2011-04-03T00:00:00Z,30.3288,-87.8293,1.501,8.53,1111122 
DISL,ioos:station:DISL:BSCA:1,2011-04-03T00:30:00Z,30.3288,-87.8293,1.494,8.24,1111122 
DISL,ioos:station:DISL:BSCA:1,2011-04-03T01:00:00Z,30.3288,-87.8293,1.498,8.34,1111122 
DISL,ioos:station:DISL:BSCA:1,2011-04-03T01:30:00Z,30.3288,-87.8293,1.5,7.7,1111122 
DISL,ioos:station:DISL:BSCA:1,2011-04-03T02:00:00Z,30.3288,-87.8293,1.503,8.06,1111122 
DISL,ioos:station:DISL:BSCA:1,2011-04-03T02:30:00Z,30.3288,-87.8293,1.511,6.85,1111122 
DISL,ioos:station:DISL:BSCA:1,2011-04-03T03:00:00Z,30.3288,-87.8293,1.531,6.39,1111122 
DISL,ioos:station:DISL:BSCA:1,2011-04-03T03:30:00Z,30.3288,-87.8293,1.557,5.98,1111122 
DISL,ioos:station:DISL:BSCA:1,2011-04-03T04:00:00Z,30.3288,-87.8293,1.559,6.93,1111122 
DISL,ioos:station:DISL:BSCA:1,2011-04-03T04:30:00Z,30.3288,-87.8293,1.573,7.48,1111122 
DISL,ioos:station:DISL:BSCA:1,2011-04-03T05:00:00Z,30.3288,-87.8293,1.595,5.51,1111122 
DISL,ioos:station:DISL:BSCA:1,2011-04-03T05:30:00Z,30.3288,-87.8293,1.615,5.84,1111122 
DISL,ioos:station:DISL:BSCA:1,2011-04-03T06:00:00Z,30.3288,-87.8293,1.63,6.82,1111122 
DISL,ioos:station:DISL:BSCA:1,2011-04-03T06:30:00Z,30.3288,-87.8293,1.63,7.13,1111122 
DISL,ioos:station:DISL:BSCA:1,2011-04-03T07:00:00Z,30.3288,-87.8293,1.625,6.34,1111122 
DISL,ioos:station:DISL:BSCA:1,2011-04-03T07:30:00Z,30.3288,-87.8293,1.629,5.53,1111122 
DISL,ioos:station:DISL:BSCA:1,2011-04-03T08:00:00Z,30.3288,-87.8293,1.628,6.39,1111122 
DISL,ioos:station:DISL:BSCA:1,2011-04-03T08:30:00Z,30.3288,-87.8293,1.637,6.16,1111122 
DISL,ioos:station:DISL:BSCA:1,2011-04-03T09:00:00Z,30.3288,-87.8293,1.636,6.2,1111122 
DISL,ioos:station:DISL:BSCA:1,2011-04-03T09:30:00Z,30.3288,-87.8293,1.634,5.19,1111122 
DISL,ioos:station:DISL:BSCA:1,2011-04-03T10:00:00Z,30.3288,-87.8293,1.631,5.69,1111122 
DISL,ioos:station:DISL:BSCA:1,2011-04-03T10:30:00Z,30.3288,-87.8293,1.619,5.46,1111122 
DISL,ioos:station:DISL:BSCA:1,2011-04-03T11:00:00Z,30.3288,-87.8293,1.623,5.47,1111122 
DISL,ioos:station:DISL:BSCA:1,2011-04-03T11:30:00Z,30.3288,-87.8293,1.621,4.59,1111122 
DISL,ioos:station:DISL:BSCA:1,2011-04-03T12:00:00Z,30.3288,-87.8293,1.634,6.67,1111122 
DISL,ioos:station:DISL:BSCA:1,2011-04-03T12:30:00Z,30.3288,-87.8293,1.653,6.89,1111122 
DISL,ioos:station:DISL:BSCA:1,2011-04-03T13:00:00Z,30.3288,-87.8293,1.662,5.95,1111122 
DISL,ioos:station:DISL:BSCA:1,2011-04-03T13:30:00Z,30.3288,-87.8293,1.689,6.78,1111122 
DISL,ioos:station:DISL:BSCA:1,2011-04-03T14:00:00Z,30.3288,-87.8293,1.701,7.5,1111122 
DISL,ioos:station:DISL:BSCA:1,2011-04-03T14:30:00Z,30.3288,-87.8293,1.716,8.06,1111122 
DISL,ioos:station:DISL:BSCA:1,2011-04-03T15:00:00Z,30.3288,-87.8293,1.723,8.21,1111122 
DISL,ioos:station:DISL:BSCA:1,2011-04-03T15:30:00Z,30.3288,-87.8293,1.723,8.34,1111122 
DISL,ioos:station:DISL:BSCA:1,2011-04-03T16:00:00Z,30.3288,-87.8293,1.73,8.25,1111122 
DISL,ioos:station:DISL:BSCA:1,2011-04-03T16:30:00Z,30.3288,-87.8293,1.718,8.75,1111122 
DISL,ioos:station:DISL:BSCA:1,2011-04-03T17:00:00Z,30.3288,-87.8293,1.717,9.12,1111122 
DISL,ioos:station:DISL:BSCA:1,2011-04-03T17:30:00Z,30.3288,-87.8293,1.706,9.21,1111122 
DISL,ioos:station:DISL:BSCA:1,2011-04-03T18:00:00Z,30.3288,-87.8293,1.685,9.35,1111122 
DISL,ioos:station:DISL:BSCA:1,2011-04-03T18:30:00Z,30.3288,-87.8293,1.678,9.42,1111122 
DISL,ioos:station:DISL:BSCA:1,2011-04-03T19:00:00Z,30.3288,-87.8293,1.643,9.52,1111122 
DISL,ioos:station:DISL:BSCA:1,2011-04-03T19:30:00Z,30.3288,-87.8293,1.62,9.63,1111122 
DISL,ioos:station:DISL:BSCA:1,2011-04-03T20:00:00Z,30.3288,-87.8293,1.587,9.28,1111122 
DISL,ioos:station:DISL:BSCA:1,2011-04-03T20:30:00Z,30.3288,-87.8293,1.561,9.34,1111122 
DISL,ioos:station:DISL:BSCA:1,2011-04-03T21:00:00Z,30.3288,-87.8293,1.533,9.5,1111122 
DISL,ioos:station:DISL:BSCA:1,2011-04-03T21:30:00Z,30.3288,-87.8293,1.507,9.37,1111122 
DISL,ioos:station:DISL:BSCA:1,2011-04-03T22:00:00Z,30.3288,-87.8293,1.499,9.2,1111122 
DISL,ioos:station:DISL:BSCA:1,2011-04-03T22:30:00Z,30.3288,-87.8293,1.485,9.04,1111122 
DISL,ioos:station:DISL:BSCA:1,2011-04-03T23:00:00Z,30.3288,-87.8293,1.472,8.97,1111122 
DISL,ioos:station:DISL:BSCA:1,2011-04-03T23:30:00Z,30.3288,-87.8293,1.451,9.24,1111122 
DISL,ioos:station:DISL:BSCA:1,2011-04-04T00:00:00Z,30.3288,-87.8293,1.439,9.19,1111122 
DISL,ioos:station:DISL:BSCA:1,2011-04-04T00:30:00Z,30.3288,-87.8293,1.421,9.0,1111122 
DISL,ioos:station:DISL:BSCA:1,2011-04-04T01:00:00Z,30.3288,-87.8293,1.409,8.91,1111122 
DISL,ioos:station:DISL:BSCA:1,2011-04-04T01:30:00Z,30.3288,-87.8293,1.407,8.65,1111122 
DISL,ioos:station:DISL:BSCA:1,2011-04-04T02:00:00Z,30.3288,-87.8293,1.411,8.68,1111122 
DISL,ioos:station:DISL:BSCA:1,2011-04-04T02:30:00Z,30.3288,-87.8293,1.434,8.78,1111122 
DISL,ioos:station:DISL:BSCA:1,2011-04-04T03:00:00Z,30.3288,-87.8293,1.455,8.79,1111122 
DISL,ioos:station:DISL:BSCA:1,2011-04-04T03:30:00Z,30.3288,-87.8293,1.477,8.63,1111122 
DISL,ioos:station:DISL:BSCA:1,2011-04-04T04:00:00Z,30.3288,-87.8293,1.498,8.65,1111122 
DISL,ioos:station:DISL:BSCA:1,2011-04-04T04:30:00Z,30.3288,-87.8293,1.51,8.52,1111122 
DISL,ioos:station:DISL:BSCA:1,2011-04-04T05:00:00Z,30.3288,-87.8293,1.546,8.59,1111122 
DISL,ioos:station:DISL:BSCA:1,2011-04-04T05:30:00Z,30.3288,-87.8293,1.571,8.51,1111122 
DISL,ioos:station:DISL:BSCA:1,2011-04-04T06:00:00Z,30.3288,-87.8293,1.59,8.58,1111122 
DISL,ioos:station:DISL:BSCA:1,2011-04-04T06:30:00Z,30.3288,-87.8293,1.618,8.52,1111122 
DISL,ioos:station:DISL:BSCA:1,2011-04-04T07:00:00Z,30.3288,-87.8293,1.617,8.65,1111122 
DISL,ioos:station:DISL:BSCA:1,2011-04-04T07:30:00Z,30.3288,-87.8293,1.635,8.52,1111122 
DISL,ioos:station:DISL:BSCA:1,2011-04-04T08:00:00Z,30.3288,-87.8293,1.643,8.5,1111122 
DISL,ioos:station:DISL:BSCA:1,2011-04-04T08:30:00Z,30.3288,-87.8293,1.663,8.41,1111122 
DISL,ioos:station:DISL:BSCA:1,2011-04-04T09:00:00Z,30.3288,-87.8293,1.674,8.35,1111122 
DISL,ioos:station:DISL:BSCA:1,2011-04-04T09:30:00Z,30.3288,-87.8293,1.684,8.4,1111122 
DISL,ioos:station:DISL:BSCA:1,2011-04-04T10:00:00Z,30.3288,-87.8293,1.699,8.33,1111122 
DISL,ioos:station:DISL:BSCA:1,2011-04-04T10:30:00Z,30.3288,-87.8293,1.719,8.24,1111122 
DISL,ioos:station:DISL:BSCA:1,2011-04-04T11:00:00Z,30.3288,-87.8293,1.736,8.11,1111122 
DISL,ioos:station:DISL:BSCA:1,2011-04-04T11:30:00Z,30.3288,-87.8293,1.759,8.07,1111122 
DISL,ioos:station:DISL:BSCA:1,2011-04-04T12:00:00Z,30.3288,-87.8293,1.755,8.04,1111122 
DISL,ioos:station:DISL:BSCA:1,2011-04-04T12:30:00Z,30.3288,-87.8293,1.794,8.13,1111122 
DISL,ioos:station:DISL:BSCA:1,2011-04-04T13:00:00Z,30.3288,-87.8293,1.795,8.1,1111122 
DISL,ioos:station:DISL:BSCA:1,2011-04-04T13:30:00Z,30.3288,-87.8293,1.797,8.22,1111122 
DISL,ioos:station:DISL:BSCA:1,2011-04-04T14:00:00Z,30.3288,-87.8293,1.817,8.27,1111122 
DISL,ioos:station:DISL:BSCA:1,2011-04-04T14:30:00Z,30.3288,-87.8293,1.827,8.17,1111122 
DISL,ioos:station:DISL:BSCA:1,2011-04-04T15:00:00Z,30.3288,-87.8293,1.852,8.18,1111122 
DISL,ioos:station:DISL:BSCA:1,2011-04-04T15:30:00Z,30.3288,-87.8293,1.846,8.2,1111122 
DISL,ioos:station:DISL:BSCA:1,2011-04-04T16:00:00Z,30.3288,-87.8293,1.848,8.25,1111122 
DISL,ioos:station:DISL:BSCA:1,2011-04-04T16:30:00Z,30.3288,-87.8293,1.856,8.1,1111122 
DISL,ioos:station:DISL:BSCA:1,2011-04-04T17:00:00Z,30.3288,-87.8293,1.865,8.11,1111122 
DISL,ioos:station:DISL:BSCA:1,2011-04-04T17:30:00Z,30.3288,-87.8293,1.879,8.23,1111122 
DISL,ioos:station:DISL:BSCA:1,2011-04-04T18:00:00Z,30.3288,-87.8293,1.885,8.29,1111122 
DISL,ioos:station:DISL:BSCA:1,2011-04-04T18:30:00Z,30.3288,-87.8293,1.866,8.3,1111122 
DISL,ioos:station:DISL:BSCA:1,2011-04-04T19:00:00Z,30.3288,-87.8293,1.849,8.29,1111122 
DISL,ioos:station:DISL:BSCA:1,2011-04-04T19:30:00Z,30.3288,-87.8293,1.813,8.27,1111122 
DISL,ioos:station:DISL:BSCA:1,2011-04-04T20:00:00Z,30.3288,-87.8293,1.785,8.31,1111122 
DISL,ioos:station:DISL:BSCA:1,2011-04-04T20:30:00Z,30.3288,-87.8293,1.729,8.46,1111122 
DISL,ioos:station:DISL:BSCA:1,2011-04-04T21:00:00Z,30.3288,-87.8293,1.688,8.25,1111122 
DISL,ioos:station:DISL:BSCA:1,2011-04-04T21:30:00Z,30.3288,-87.8293,1.638,7.6,1111122 
DISL,ioos:station:DISL:BSCA:1,2011-04-04T22:00:00Z,30.3288,-87.8293,1.599,7.8,1111122 
DISL,ioos:station:DISL:BSCA:1,2011-04-04T22:30:00Z,30.3288,-87.8293,1.559,8.21,1111122 
DISL,ioos:station:DISL:BSCA:1,2011-04-04T23:00:00Z,30.3288,-87.8293,1.507,8.31,1111122 
DISL,ioos:station:DISL:BSCA:1,2011-04-04T23:30:00Z,30.3288,-87.8293,1.485,8.25,1111122 
DISL,ioos:station:DISL:BSCA:1,2011-04-05T00:00:00Z,30.3288,-87.8293,1.472,7.89,1111122 
DISL,ioos:station:DISL:BSCA:1,2011-04-05T00:30:00Z,30.3288,-87.8293,1.448,8.0,1111122 
DISL,ioos:station:DISL:BSCA:1,2011-04-05T01:00:00Z,30.3288,-87.8293,1.469,8.06,1111122 
DISL,ioos:station:DISL:BSCA:1,2011-04-05T01:30:00Z,30.3288,-87.8293,1.491,8.03,1111122 
DISL,ioos:station:DISL:BSCA:1,2011-04-05T02:00:00Z,30.3288,-87.8293,1.519,8.1,1111122 
DISL,ioos:station:DISL:BSCA:1,2011-04-05T02:30:00Z,30.3288,-87.8293,1.605,8.14,1111122 
DISL,ioos:station:DISL:BSCA:1,2011-04-05T03:00:00Z,30.3288,-87.8293,1.583,8.31,1111122 
DISL,ioos:station:DISL:BSCA:1,2011-04-05T03:30:00Z,30.3288,-87.8293,1.656,7.99,1111122 
DISL,ioos:station:DISL:BSCA:1,2011-04-05T04:00:00Z,30.3288,-87.8293,1.986,7.81,1111122 
DISL,ioos:station:DISL:BSCA:1,2011-04-05T04:30:00Z,30.3288,-87.8293,2.218,7.64,1111122 
DISL,ioos:station:DISL:BSCA:1,2011-04-05T05:00:00Z,30.3288,-87.8293,2.138,7.52,1111122 
DISL,ioos:station:DISL:BSCA:1,2011-04-05T05:30:00Z,30.3288,-87.8293,2.064,7.38,1111122 
DISL,ioos:station:DISL:BSCA:1,2011-04-05T06:00:00Z,30.3288,-87.8293,1.866,7.45,1111122 
DISL,ioos:station:DISL:BSCA:1,2011-04-05T06:30:00Z,30.3288,-87.8293,1.768,7.54,1111122 
DISL,ioos:station:DISL:BSCA:1,2011-04-05T07:00:00Z,30.3288,-87.8293,1.692,7.48,1111122 
DISL,ioos:station:DISL:BSCA:1,2011-04-05T07:30:00Z,30.3288,-87.8293,1.589,7.25,1111122 
DISL,ioos:station:DISL:BSCA:1,2011-04-05T08:00:00Z,30.3288,-87.8293,1.571,7.2,1111122 
DISL,ioos:station:DISL:BSCA:1,2011-04-05T08:30:00Z,30.3288,-87.8293,1.541,7.18,1111122 
DISL,ioos:station:DISL:BSCA:1,2011-04-05T09:00:00Z,30.3288,-87.8293,1.524,7.25,1111122 
DISL,ioos:station:DISL:BSCA:1,2011-04-05T09:30:00Z,30.3288,-87.8293,1.494,7.19,1111122 
DISL,ioos:station:DISL:BSCA:1,2011-04-05T10:00:00Z,30.3288,-87.8293,1.498,7.28,1111122 
DISL,ioos:station:DISL:BSCA:1,2011-04-05T10:30:00Z,30.3288,-87.8293,1.482,7.12,1111122 
DISL,ioos:station:DISL:BSCA:1,2011-04-05T11:00:00Z,30.3288,-87.8293,1.491,7.22,1111122 
DISL,ioos:station:DISL:BSCA:1,2011-04-05T11:30:00Z,30.3288,-87.8293,1.458,7.46,1111122 
DISL,ioos:station:DISL:BSCA:1,2011-04-05T12:00:00Z,30.3288,-87.8293,1.461,7.33,1111122 
DISL,ioos:station:DISL:BSCA:1,2011-04-05T12:30:00Z,30.3288,-87.8293,1.437,7.4,1111122 
DISL,ioos:station:DISL:BSCA:1,2011-04-05T13:00:00Z,30.3288,-87.8293,1.434,7.38,1111122 
DISL,ioos:station:DISL:BSCA:1,2011-04-05T13:30:00Z,30.3288,-87.8293,1.441,7.37,1111122 
DISL,ioos:station:DISL:BSCA:1,2011-04-05T14:00:00Z,30.3288,-87.8293,1.462,7.48,1111122 
DISL,ioos:station:DISL:BSCA:1,2011-04-05T14:30:00Z,30.3288,-87.8293,1.527,7.56,1111122 
DISL,ioos:station:DISL:BSCA:1,2011-04-05T15:00:00Z,30.3288,-87.8293,1.563,7.48,1111122 
DISL,ioos:station:DISL:BSCA:1,2011-04-05T15:30:00Z,30.3288,-87.8293,1.6,7.61,1111122 
DISL,ioos:station:DISL:BSCA:1,2011-04-05T16:00:00Z,30.3288,-87.8293,1.665,7.53,1111122 
DISL,ioos:station:DISL:BSCA:1,2011-04-05T16:30:00Z,30.3288,-87.8293,1.668,7.62,1111122 
DISL,ioos:station:DISL:BSCA:1,2011-04-05T17:00:00Z,30.3288,-87.8293,1.697,7.74,1111122 
DISL,ioos:station:DISL:BSCA:1,2011-04-05T17:30:00Z,30.3288,-87.8293,1.728,7.71,1111122 
DISL,ioos:station:DISL:BSCA:1,2011-04-05T18:00:00Z,30.3288,-87.8293,1.733,7.78,1111122 
DISL,ioos:station:DISL:BSCA:1,2011-04-05T18:30:00Z,30.3288,-87.8293,1.76,7.91,1111122 
DISL,ioos:station:DISL:BSCA:1,2011-04-05T19:00:00Z,30.3288,-87.8293,1.773,7.82,1111122 
DISL,ioos:station:DISL:BSCA:1,2011-04-05T19:30:00Z,30.3288,-87.8293,1.784,7.82,1111122 
DISL,ioos:station:DISL:BSCA:1,2011-04-05T20:00:00Z,30.3288,-87.8293,1.762,7.98,1111122 
DISL,ioos:station:DISL:BSCA:1,2011-04-05T20:30:00Z,30.3288,-87.8293,1.74,7.96,1111122 
DISL,ioos:station:DISL:BSCA:1,2011-04-05T21:00:00Z,30.3288,-87.8293,1.71,7.93,1111122 
DISL,ioos:station:DISL:BSCA:1,2011-04-05T21:30:00Z,30.3288,-87.8293,1.678,7.52,1111122 
DISL,ioos:station:DISL:BSCA:1,2011-04-05T22:00:00Z,30.3288,-87.8293,1.658,7.49,1111122 
DISL,ioos:station:DISL:BSCA:1,2011-04-05T22:30:00Z,30.3288,-87.8293,1.625,7.36,1111122 
DISL,ioos:station:DISL:BSCA:1,2011-04-05T23:00:00Z,30.3288,-87.8293,1.603,6.21,1111122 
DISL,ioos:station:DISL:BSCA:1,2011-04-05T23:30:00Z,30.3288,-87.8293,1.58,5.97,1111122 
DISL,ioos:station:DISL:BSCA:1,2011-04-06T00:00:00Z,30.3288,-87.8293,1.574,5.04,1111122 
DISL,ioos:station:DISL:BSCA:1,2011-04-06T00:30:00Z,30.3288,-87.8293,1.555,6.37,1111122 
DISL,ioos:station:DISL:BSCA:1,2011-04-06T01:00:00Z,30.3288,-87.8293,1.537,5.13,1111122 
DISL,ioos:station:DISL:BSCA:1,2011-04-06T01:30:00Z,30.3288,-87.8293,1.505,7.71,1111122 
DISL,ioos:station:DISL:BSCA:1,2011-04-06T02:00:00Z,30.3288,-87.8293,1.475,7.64,1111122 
DISL,ioos:station:DISL:BSCA:1,2011-04-06T02:30:00Z,30.3288,-87.8293,1.455,7.41,1111122 
DISL,ioos:station:DISL:BSCA:1,2011-04-06T03:00:00Z,30.3288,-87.8293,1.44,7.45,1111122 
DISL,ioos:station:DISL:BSCA:1,2011-04-06T03:30:00Z,30.3288,-87.8293,1.432,7.19,1111122 
DISL,ioos:station:DISL:BSCA:1,2011-04-06T04:00:00Z,30.3288,-87.8293,1.419,6.87,1111122 
DISL,ioos:station:DISL:BSCA:1,2011-04-06T04:30:00Z,30.3288,-87.8293,1.406,6.37,1111122 
DISL,ioos:station:DISL:BSCA:1,2011-04-06T05:00:00Z,30.3288,-87.8293,1.401,6.4,1111122 
DISL,ioos:station:DISL:BSCA:1,2011-04-06T05:30:00Z,30.3288,-87.8293,1.388,7.08,1111122 
DISL,ioos:station:DISL:BSCA:1,2011-04-06T06:00:00Z,30.3288,-87.8293,1.385,5.9,1111122 
DISL,ioos:station:DISL:BSCA:1,2011-04-06T06:30:00Z,30.3288,-87.8293,1.401,5.98,1111122 
DISL,ioos:station:DISL:BSCA:1,2011-04-06T07:00:00Z,30.3288,-87.8293,1.406,5.96,1111122 
DISL,ioos:station:DISL:BSCA:1,2011-04-06T07:30:00Z,30.3288,-87.8293,1.422,5.76,1111122 
DISL,ioos:station:DISL:BSCA:1,2011-04-06T08:00:00Z,30.3288,-87.8293,1.444,4.79,1111122 
DISL,ioos:station:DISL:BSCA:1,2011-04-06T08:30:00Z,30.3288,-87.8293,1.465,5.01,1111122 
DISL,ioos:station:DISL:BSCA:1,2011-04-06T09:00:00Z,30.3288,-87.8293,1.498,4.13,1111122 
DISL,ioos:station:DISL:BSCA:1,2011-04-06T09:30:00Z,30.3288,-87.8293,1.512,3.99,1111122 
DISL,ioos:station:DISL:BSCA:1,2011-04-06T10:00:00Z,30.3288,-87.8293,1.531,4.9,1111122 
DISL,ioos:station:DISL:BSCA:1,2011-04-06T10:30:00Z,30.3288,-87.8293,1.536,4.56,1111122 
DISL,ioos:station:DISL:BSCA:1,2011-04-06T11:00:00Z,30.3288,-87.8293,1.551,5.17,1111122 
DISL,ioos:station:DISL:BSCA:1,2011-04-06T11:30:00Z,30.3288,-87.8293,1.577,5.38,1111122 
DISL,ioos:station:DISL:BSCA:1,2011-04-06T12:00:00Z,30.3288,-87.8293,1.607,4.6,1111122 
DISL,ioos:station:DISL:BSCA:1,2011-04-06T12:30:00Z,30.3288,-87.8293,1.641,3.79,1111122 
DISL,ioos:station:DISL:BSCA:1,2011-04-06T13:00:00Z,30.3288,-87.8293,1.662,3.64,1111122 
DISL,ioos:station:DISL:BSCA:1,2011-04-06T13:30:00Z,30.3288,-87.8293,1.698,5.64,1111122 
DISL,ioos:station:DISL:BSCA:1,2011-04-06T14:00:00Z,30.3288,-87.8293,1.731,5.38,1111122 
DISL,ioos:station:DISL:BSCA:1,2011-04-06T14:30:00Z,30.3288,-87.8293,1.759,5.38,1111122 
DISL,ioos:station:DISL:BSCA:1,2011-04-06T15:00:00Z,30.3288,-87.8293,1.772,5.26,1111122 
DISL,ioos:station:DISL:BSCA:1,2011-04-06T15:30:00Z,30.3288,-87.8293,1.799,4.66,1111122 